• In Russia
  • List of Countries
  • For 7 days
  • Water Temperature
  • Satellite Maps
  • Weather Map
  • Weather Widgets
  • user-avatar
    Login

    Hourly Weather Mingachevir

    Today, 17 October, Wednesday

    Time Temperature Precipitation Wind Pressure Humidity
    00:00 +17°C° 0 mm 2 mps 760 mmHg 85%
    01:00 +17°C° 0 mm 2 mps 760 mmHg 87%
    02:00 +16°C° 0 mm 2 mps 760 mmHg 89%
    03:00 +16°C° 0 mm 2 mps 760 mmHg 91%
    04:00 +16°C° 0 mm 1 mps 760 mmHg 90%
    05:00 +16°C° 0 mm 1 mps 760 mmHg 90%
    06:00 +16°C° 0 mm 1 mps 760 mmHg 90%
    07:00 +18°C° 0 mm 1 mps 760 mmHg 86%
    08:00 +19°C° 0 mm 1 mps 760 mmHg 82%
    09:00 +19°C° 0 mm 2 mps 760 mmHg 78%
    10:00 +19°C° 0 mm 2 mps 759 mmHg 75%
    11:00 +20°C° 0 mm 2 mps 759 mmHg 72%
    12:00 +21°C° 0 mm 3 mps 759 mmHg 69%
    13:00 +21°C° 0 mm 3 mps 758 mmHg 66%
    14:00 +22°C° 0 mm 3 mps 758 mmHg 63%
    15:00 +22°C° 0 mm 3 mps 758 mmHg 60%
    16:00 +21°C° 0 mm 3 mps 758 mmHg 66%
    17:00 +20°C° 0 mm 3 mps 758 mmHg 71%
    18:00 +19°C° 0 mm 2 mps 758 mmHg 76%
    19:00 +19°C° 0 mm 2 mps 758 mmHg 79%
    20:00 +18°C° 0 mm 2 mps 758 mmHg 81%
    21:00 +18°C° 0 mm 2 mps 758 mmHg 84%
    22:00 +17°C° 0 mm 2 mps 758 mmHg 85%
    23:00 +18°C° 0 mm 1 mps 758 mmHg 87%

    Tomorrow, 18 October, Thursday

    Time Temperature Precipitation Wind Pressure Humidity
    00:00 +18°C° 0 mm 1 mps 758 mmHg 89%
    01:00 +16°C° 0 mm 1 mps 758 mmHg 89%
    02:00 +16°C° 0 mm 1 mps 757 mmHg 89%
    03:00 +16°C° 0 mm 1 mps 757 mmHg 89%
    04:00 +16°C° 0 mm 1 mps 757 mmHg 89%
    05:00 +15°C° 0 mm 0 mps 757 mmHg 88%
    06:00 +15°C° 0 mm 0 mps 757 mmHg 87%
    07:00 +18°C° 0 mm 1 mps 757 mmHg 81%
    08:00 +20°C° 0 mm 1 mps 757 mmHg 75%
    09:00 +21°C° 0 mm 1 mps 757 mmHg 68%
    10:00 +22°C° 0 mm 1 mps 757 mmHg 64%
    11:00 +23°C° 0 mm 2 mps 756 mmHg 59%
    12:00 +24°C° 0 mm 2 mps 756 mmHg 55%
    13:00 +25°C° 0 mm 2 mps 756 mmHg 53%
    14:00 +25°C° 0 mm 2 mps 755 mmHg 51%
    15:00 +25°C° 0 mm 3 mps 755 mmHg 49%
    16:00 +24°C° 0 mm 2 mps 755 mmHg 54%
    17:00 +23°C° 0 mm 2 mps 756 mmHg 59%
    18:00 +21°C° 0 mm 2 mps 756 mmHg 64%
    19:00 +20°C° 0 mm 2 mps 756 mmHg 67%
    20:00 +20°C° 0 mm 2 mps 757 mmHg 69%
    21:00 +19°C° 0 mm 3 mps 757 mmHg 71%
    22:00 +19°C° 0 mm 2 mps 757 mmHg 74%
    23:00 +18°C° 0 mm 2 mps 757 mmHg 77%

    Day after tomorrow, 19 October, Friday

    Time Temperature Precipitation Wind Pressure Humidity
    00:00 +18°C° 0 mm 2 mps 757 mmHg 80%
    01:00 +17°C° 0 mm 2 mps 757 mmHg 82%
    02:00 +18°C° 0 mm 1 mps 757 mmHg 83%
    03:00 +16°C° 0 mm 1 mps 757 mmHg 85%
    04:00 +16°C° 0 mm 1 mps 757 mmHg 86%
    05:00 +16°C° 0 mm 1 mps 757 mmHg 86%
    06:00 +16°C° 0 mm 1 mps 757 mmHg 86%
    07:00 +18°C° 0 mm 1 mps 757 mmHg 81%
    08:00 +19°C° 0 mm 1 mps 757 mmHg 76%
    09:00 +21°C° 0 mm 1 mps 757 mmHg 71%
    10:00 +21°C° 0 mm 2 mps 756 mmHg 67%
    11:00 +23°C° 0 mm 2 mps 756 mmHg 62%
    12:00 +24°C° 0 mm 2 mps 756 mmHg 58%
    13:00 +24°C° 0 mm 2 mps 755 mmHg 56%
    14:00 +25°C° 0 mm 2 mps 755 mmHg 54%
    15:00 +25°C° 0 mm 2 mps 754 mmHg 53%
    16:00 +24°C° 0 mm 2 mps 755 mmHg 57%
    17:00 +23°C° 0 mm 2 mps 755 mmHg 62%
    18:00 +21°C° 0 mm 2 mps 755 mmHg 66%
    19:00 +20°C° 0 mm 2 mps 755 mmHg 68%
    20:00 +20°C° 0 mm 2 mps 755 mmHg 71%
    21:00 +19°C° 0 mm 2 mps 756 mmHg 73%
    22:00 +19°C° 0 mm 2 mps 756 mmHg 76%
    23:00 +18°C° 0 mm 2 mps 755 mmHg 79%

    20 October, Saturday

    Time Temperature Precipitation Wind Pressure Humidity
    00:00 +17°C° 0 mm 2 mps 755 mmHg 82%
    01:00 +18°C° 0 mm 1 mps 755 mmHg 83%
    02:00 +18°C° 0 mm 1 mps 755 mmHg 84%
    03:00 +16°C° 0 mm 1 mps 755 mmHg 85%
    04:00 +16°C° 0 mm 1 mps 755 mmHg 85%
    05:00 +16°C° 0 mm 1 mps 755 mmHg 85%
    06:00 +16°C° 0 mm 1 mps 755 mmHg 84%
    07:00 +18°C° 0 mm 1 mps 754 mmHg 79%
    08:00 +20°C° 0 mm 1 mps 754 mmHg 74%
    09:00 +21°C° 0 mm 1 mps 754 mmHg 69%
    10:00 +22°C° 0 mm 1 mps 754 mmHg 63%
    11:00 +24°C° 0 mm 1 mps 753 mmHg 57%
    12:00 +25°C° 0 mm 1 mps 753 mmHg 51%
    13:00 +25°C° 0 mm 1 mps 752 mmHg 49%
    14:00 +26°C° 0 mm 1 mps 752 mmHg 47%
    15:00 +26°C° 0 mm 1 mps 752 mmHg 44%
    16:00 +25°C° 0 mm 1 mps 752 mmHg 49%
    17:00 +24°C° 0 mm 1 mps 752 mmHg 53%
    18:00 +23°C° 0 mm 1 mps 752 mmHg 57%
    19:00 +22°C° 0 mm 1 mps 752 mmHg 59%
    20:00 +22°C° 0 mm 1 mps 753 mmHg 60%
    21:00 +21°C° 0 mm 1 mps 753 mmHg 62%
    22:00 +21°C° 0 mm 1 mps 753 mmHg 64%
    23:00 +20°C° 0 mm 1 mps 752 mmHg 65%

    21 October, Sunday

    Time Temperature Precipitation Wind Pressure Humidity
    00:00 +20°C° 0 mm 1 mps 752 mmHg 67%
    01:00 +20°C° 0 mm 1 mps 752 mmHg 68%
    02:00 +17°C° 0 mm 0 mps 752 mmHg 68%
    03:00 +17°C° 0 mm 0 mps 752 mmHg 69%
    04:00 +17°C° 0 mm 0 mps 752 mmHg 69%
    05:00 +19°C° 0 mm 1 mps 752 mmHg 69%
    06:00 +18°C° 0 mm 1 mps 752 mmHg 68%
    07:00 +20°C° 0 mm 1 mps 752 mmHg 62%
    08:00 +22°C° 0 mm 1 mps 752 mmHg 57%
    09:00 +23°C° 0 mm 1 mps 752 mmHg 51%
    10:00 +24°C° 0 mm 1 mps 752 mmHg 47%
    11:00 +25°C° 0 mm 1 mps 752 mmHg 43%
    12:00 +27°C° 0 mm 1 mps 751 mmHg 39%
    13:00 +27°C° 0 mm 1 mps 751 mmHg 38%
    14:00 +27°C° 0 mm 1 mps 751 mmHg 37%
    15:00 +27°C° 0 mm 1 mps 750 mmHg 36%
    16:00 +26°C° 0 mm 1 mps 750 mmHg 39%
    17:00 +25°C° 0 mm 1 mps 751 mmHg 43%
    18:00 +24°C° 0 mm 1 mps 751 mmHg 46%
    19:00 +24°C° 0.1 mm 1 mps 751 mmHg 48%
    20:00 +23°C° 0.1 mm 1 mps 751 mmHg 50%
    21:00 +23°C° 0.1 mm 1 mps 751 mmHg 51%
    22:00 +22°C° 0.1 mm 1 mps 751 mmHg 53%
    23:00 +22°C° 0.1 mm 1 mps 751 mmHg 55%

    22 October, Monday

    Time Temperature Precipitation Wind Pressure Humidity
    00:00 +21°C° 0.1 mm 1 mps 751 mmHg 56%
    01:00 +21°C° 0 mm 1 mps 751 mmHg 57%
    02:00 +21°C° 0 mm 1 mps 751 mmHg 58%
    03:00 +20°C° 0 mm 1 mps 751 mmHg 58%
    04:00 +20°C° 0 mm 1 mps 751 mmHg 58%
    05:00 +20°C° 0 mm 1 mps 752 mmHg 58%
    06:00 +20°C° 0 mm 1 mps 752 mmHg 58%
    07:00 +21°C° 0 mm 1 mps 752 mmHg 53%
    08:00 +23°C° 0 mm 1 mps 752 mmHg 48%
    09:00 +24°C° 0 mm 2 mps 752 mmHg 43%
    10:00 +25°C° 0 mm 2 mps 752 mmHg 41%
    11:00 +26°C° 0 mm 2 mps 752 mmHg 38%
    12:00 +27°C° 0 mm 2 mps 752 mmHg 36%
    13:00 +27°C° 0 mm 2 mps 751 mmHg 36%
    14:00 +27°C° 0 mm 2 mps 751 mmHg 35%
    15:00 +28°C° 0 mm 2 mps 751 mmHg 34%
    16:00 +26°C° 0 mm 1 mps 752 mmHg 38%
    17:00 +25°C° 0 mm 1 mps 752 mmHg 41%
    18:00 +24°C° 0 mm 1 mps 753 mmHg 45%
    19:00 +23°C° 0 mm 1 mps 753 mmHg 46%
    20:00 +23°C° 0 mm 1 mps 753 mmHg 47%
    21:00 +22°C° 0 mm 1 mps 754 mmHg 48%
    22:00 +22°C° 0 mm 1 mps 754 mmHg 48%
    23:00 +22°C° 0 mm 1 mps 754 mmHg 47%
    Show more